Content
SEND FEEDBACK

Daily
Averages
Monthly
Summary
Greece

MITILINI, GREECE


Home > Europe > Greece
Elevation: 16 feet     Latitude: 39 04N     Longitude: 026 36E

WEATHER
 
SELECT A DAY
Number of Records: 93,113;   Date Range: 7/9/96 - 10/21/14
 
SHARE

PRINT THIS DATA

[ ← Previous Day ]
WEATHER ALMANAC - JANUARY 6, 2013
[ Next Day → ]
[ °C ]   °F
Weather ElementAverageHighLow
Temperature46.2 °F48.2 °F (11:20 am)44.6 °F (6:50 am)
Dewpoint37.8 °F42.8 °F (6:50 am)32 °F (7:50 pm)
Humidity72.5 %93 % (6:50 am)50 % (8:00 pm)
Barometer29.80 in29.86 in (7:50 pm)29.71 in (6:50 am)
Wind Speed13.2 mph20.7 mph (3:20 pm)
Wind Gust34.5 mph (6:50 pm)
Weather ElementAverage
Visibility6.1 mi
Wind DirectionENE (81.6 °)

Weather ElementTotal
Precipitation---
Heating Degree Days18.6 (Base 65)
Averaged from 37 records on January 6, 2013
WEATHER CONDITIONS BREAKOUT
WIND DIRECTION BREAKOUT
WEATHER BY HOUR - JANUARY 6, 2013
[ °C ]   °F
Local TimeTemperatureDewpointHumidityBarometerVisibilityWind DirectionWind SpeedGust SpeedPrecipitationEventsConditions
6:50 AM44.6 °F42.8 °F93 %29.71 in6.2 miVariable3.5 mphRainLight Rain
7:20 AM46.4 °F42.8 °F87 %29.71 in6.2 miVariable2.3 mphMostly Cloudy
7:50 AM46.4 °F42.8 °F87 %29.71 in6.2 miESE (110°)4.6 mphMostly Cloudy
8:00 AM46.0 °F42.0 °F83 %29.73 in6.0 miESE (110°)4.6 mphPartly Cloudy
8:20 AM46.4 °F42.8 °F87 %29.74 in4.3 miEast (80°)8.1 mphRainLight Rain
8:50 AM46.4 °F42.8 °F87 %29.74 in3.1 miEast (80°)8.1 mphRainLight Rain
9:20 AM46.4 °F41.0 °F81 %29.77 in4.3 miENE (60°)6.9 mphRainLight Rain
9:50 AM46.4 °F42.8 °F87 %29.77 in5.0 miNE (50°)6.9 mphMostly Cloudy
10:20 AM46.4 °F41.0 °F81 %29.77 in6.2 miNNE (20°)6.9 mphMostly Cloudy
10:50 AM46.4 °F41.0 °F81 %29.77 in6.2 miNorth (360°)9.2 mphMostly Cloudy
11:20 AM48.2 °F41.0 °F76 %29.80 in6.2 miNNE (20°)8.1 mphMostly Cloudy
11:50 AM46.4 °F41.0 °F81 %29.80 in6.2 miNNE (20°)8.1 mphMostly Cloudy
12:20 PM46.4 °F41.0 °F81 %29.80 in6.2 miNNE (20°)8.1 mphMostly Cloudy
12:50 PM46.4 °F41.0 °F81 %29.77 in6.2 miNorth (360°)10.4 mphMostly Cloudy
1:20 PM46.4 °F41.0 °F81 %29.77 in6.2 miNorth (360°)10.4 mphMostly Cloudy
1:50 PM46.4 °F39.2 °F76 %29.77 in6.2 miNorth (360°)11.5 mphMostly Cloudy
2:00 PM47.0 °F39.0 °F65 %29.80 in9.0 miNorth11.5 mphPartly Cloudy
2:20 PM46.4 °F39.2 °F76 %29.77 in6.2 miNorth (360°)13.8 mphMostly Cloudy
2:50 PM48.2 °F35.6 °F62 %29.77 in6.2 miNorth (360°)18.4 mph29.9 mphMostly Cloudy
3:20 PM48.2 °F35.6 °F62 %29.80 in6.2 miNorth (10°)20.7 mph32.2 mphMostly Cloudy
3:50 PM46.4 °F37.4 °F71 %29.80 in6.2 miNorth (10°)18.4 mph33.4 mphMostly Cloudy
4:20 PM46.4 °F37.4 °F71 %29.80 in6.2 miNorth (10°)18.4 mph32.2 mphMostly Cloudy
4:50 PM46.4 °F35.6 °F66 %29.83 in6.2 miNorth (10°)16.1 mph29.9 mphMostly Cloudy
5:20 PM46.4 °F35.6 °F66 %29.83 in6.2 miNNE (20°)18.4 mph29.9 mphMostly Cloudy
5:50 PM46.4 °F35.6 °F66 %29.83 in6.2 miNNE (20°)20.7 mph33.4 mphMostly Cloudy
6:20 PM46.4 °F35.6 °F66 %29.83 in6.2 miNNE (20°)19.6 mph32.2 mphMostly Cloudy
6:50 PM46.4 °F35.6 °F66 %29.83 in6.2 miNNE (20°)20.7 mph34.5 mphMostly Cloudy
7:20 PM46.4 °F35.6 °F66 %29.83 in6.2 miNNE (20°)17.3 mph28.8 mphMostly Cloudy
7:50 PM44.6 °F32.0 °F61 %29.86 in6.2 miNNE (20°)18.4 mph31.1 mphMostly Cloudy
8:00 PM45.0 °F33.0 °F50 %29.86 in9.0 miNNE (20°)18.4 mphMostly Cloudy
8:20 PM44.6 °F32.0 °F61 %29.86 in6.2 miNorth (10°)18.4 mph31.1 mphMostly Cloudy
8:50 PM46.4 °F33.8 °F62 %29.86 in6.2 miNorth (10°)19.6 mph31.1 mphMostly Cloudy
9:20 PM46.4 °F33.8 °F62 %29.86 in6.2 miNNE (20°)18.4 mph32.2 mphMostly Cloudy
9:50 PM44.6 °F33.8 °F66 %29.86 in6.2 miNNE (20°)17.3 mph31.1 mphMostly Cloudy
10:20 PM44.6 °F33.8 °F66 %29.86 in6.2 miNNE (20°)18.4 mph29.9 mphMostly Cloudy
10:50 PM44.6 °F32.0 °F61 %29.86 in6.2 miNNE (20°)15.0 mph26.5 mphScattered Clouds
11:50 PM44.6 °F32.0 °F61 %29.86 in6.2 miNorth (10°)12.7 mphScattered Clouds
Hourly data recorded from LGMT, located miles away from Mitilini, Greece







STORIES FROM OUR PARTNERS